Location: Berg
(47.2344°N, 9.5296°E)
Time: 18:21:53
(UTC+00:00)

X-37B - Visible Passes

Search period start: 25 September 2021 00:00
Search period end: 05 October 2021 00:00
Orbit: 381 x 393 km, 45.0° (Epoch: 29 August)

Date Brightness Start Highest point End Pass type
(mag) Time Alt. Az. Time Alt. Az. Time Alt. Az.
25 Sep 1.6 03:40:29 31° SSW 03:41:16 36° SSE 03:44:14 10° E visible
26 Sep 3.3 02:44:46 16° ESE 02:44:46 16° ESE 02:45:45 10° E visible
26 Sep 0.9 04:17:04 16° WSW 04:19:21 56° S 04:22:28 10° E visible
27 Sep 1.2 03:21:20 45° SSE 03:21:20 45° SSE 03:24:06 10° E visible
28 Sep 4.0 02:25:37 11° E 02:25:37 11° E 02:25:42 10° E visible
28 Sep 0.8 03:57:54 31° WSW 03:59:10 58° S 04:02:17 10° ESE visible
29 Sep 2.4 03:02:12 28° ESE 03:02:12 28° ESE 03:03:56 10° E visible
29 Sep 1.2 04:34:29 12° W 04:37:16 43° SSW 04:40:18 10° ESE visible
30 Sep 0.8 03:38:49 52° SSW 03:38:58 53° S 03:42:03 10° ESE visible
01 Oct 3.6 02:43:12 14° ESE 02:43:12 14° ESE 02:43:45 10° ESE visible
01 Oct 1.6 04:15:30 20° WSW 04:17:01 32° SSW 04:19:53 10° SE visible
02 Oct 2.2 03:19:58 28° SE 03:19:58 28° SE 03:21:46 10° ESE visible
03 Oct 2.1 03:56:49 22° SSW 03:56:49 22° SSW 03:59:15 10° SSE visible
